Location: Bemmer
(51.5498°N, 5.6249°E)
Time: 02:40:26
(UTC+00:00)

Cosmos 2123 Rocket - Pass Details

Date: 03 March 2021
Orbit: 960 x 993 km, 82.9° (Epoch: 13 April)

Event Time Altitude Azimuth Distance (km) Brightness Sun altitude
Rises 20:52:22 0° 348° (NNW) 3,700 7.6 -32.1°
Reaches altitude 10° 20:54:54 10° 348° (NNW) 2,743 6.9 -32.4°
Enters shadow 21:00:15 65° 325° (NW) 1,072 4.3 -33.1°
